Mount Vernon, WA

4:09 PM PST on February 25, 2017 (GMT -0800)
Skagit Regional

Weather History for KBVS - March, 2013

Change the Weather History Date:

Wednesday, March 20, 2013

  Actual Average Record
Temperature  
Mean Temperature 47 °F -  
Max Temperature 53 °F 55 °F 70 °F (1986)
Min Temperature 41 °F 36 °F 29 °F (1974)
Degree Days  
Heating Degree Days 18    
Moisture  
Dew Point 45 °F    
Average Humidity 89    
Maximum Humidity 100    
Minimum Humidity 66    
Precipitation  
Precipitation 0.38 in - - ()
Sea Level Pressure  
Sea Level Pressure 29.58 in    
Wind  
Wind Speed 13 mph (South)    
Max Wind Speed 21 mph    
Max Gust Speed 36 mph    
Visibility 9 miles    
Events      
Averages and records for this station are not official NWS values.
T = Trace of Precipitation, MM = Missing Value Source: NWS Daily Summary

Daily Weather History Graph

Daily Weather History Graph

Search for Another Location

Airport or City:

Trip Planner

Search our weather history database for the weather conditions in past years. The results will help you decide how hot, cold, wet, or windy it might be!

Date:

Astronomy

Mar. 20, 2013 Rise Set
Actual Time 7:11 AM PDT 7:23 PM PDT
Civil Twilight 6:40 AM PDT 7:54 PM PDT
Nautical Twilight 6:03 AM PDT 8:31 PM PDT
Astronomical Twilight 5:25 AM PDT 9:09 PM PDT
Moon 12:37 PM PDT (3/20) 3:21 AM PDT (3/20)
Length of Visible Light 13h 13m
Length of Day
12h 11m
First Quarter, 60% of the Moon is Illuminated
Mar 20
First Quarter
Mar 27
Full
Apr 2
Last Quarter
Apr 10
New
Apr 18
First Quarter

Hourly Weather History & Observations

Time (PDT) Temp. Windchill Dew Point Humidity Pressure Visibility Wind Dir Wind Speed Gust Speed Precip Events Conditions
12:15 AM 46.4 °F 41.1 °F 42.8 °F 87% 29.57 in 10.0 mi ESE 11.5 mph - 0.00 in   Overcast
12:35 AM 48.2 °F - 42.8 °F 82% 29.56 in 10.0 mi ESE 13.8 mph 18.4 mph 0.00 in   Mostly Cloudy
12:55 AM 44.6 °F 38.8 °F 42.8 °F 93% 29.54 in 10.0 mi ENE 11.5 mph - 0.00 in   Mostly Cloudy
1:15 AM 46.4 °F 41.5 °F 44.6 °F 93% 29.55 in 10.0 mi SE 10.4 mph - 0.00 in   Overcast
1:35 AM 48.2 °F - 46.4 °F 93% 29.53 in 10.0 mi ESE 12.7 mph 21.9 mph 0.00 in   Overcast
1:55 AM 48.2 °F - 46.4 °F 93% 29.52 in 10.0 mi ESE 11.5 mph 19.6 mph 0.00 in   Overcast
2:15 AM 50.0 °F - 48.2 °F 94% 29.51 in 10.0 mi ESE 13.8 mph 21.9 mph 0.00 in   Overcast
2:35 AM 50.0 °F - 48.2 °F 94% 29.51 in 10.0 mi East 10.4 mph - 0.00 in   Overcast
2:55 AM 46.4 °F 41.9 °F 46.4 °F 100% 29.50 in 10.0 mi East 9.2 mph - 0.00 in   Overcast
3:15 AM 50.0 °F - 46.4 °F 87% 29.48 in 10.0 mi SE 13.8 mph 23.0 mph 0.00 in   Overcast
3:35 AM 51.8 °F - 46.4 °F 82% 29.47 in 10.0 mi ESE 17.3 mph 26.5 mph 0.00 in   Overcast
3:55 AM 51.8 °F - 46.4 °F 82% 29.46 in 10.0 mi ESE 13.8 mph 24.2 mph 0.00 in   Overcast
4:15 AM 50.0 °F - 48.2 °F 94% 29.45 in 10.0 mi ESE 10.4 mph 21.9 mph 0.00 in   Overcast
4:35 AM 50.0 °F - 48.2 °F 94% 29.43 in 10.0 mi ESE 12.7 mph 24.2 mph 0.00 in   Overcast
4:55 AM 51.8 °F - 48.2 °F 88% 29.42 in 10.0 mi SE 19.6 mph 27.6 mph 0.00 in   Overcast
5:15 AM 53.6 °F - 48.2 °F 82% 29.41 in 10.0 mi SE 15.0 mph 24.2 mph 0.00 in   Overcast
5:35 AM 53.6 °F - 48.2 °F 82% 29.40 in 10.0 mi SSE 18.4 mph 29.9 mph 0.00 in   Overcast
5:55 AM 53.6 °F - 48.2 °F 82% 29.39 in 10.0 mi SSE 13.8 mph 24.2 mph 0.00 in   Overcast
6:15 AM 51.8 °F - 50.0 °F 94% 29.37 in 10.0 mi SE 15.0 mph 25.3 mph 0.00 in   Overcast
6:35 AM 51.8 °F - 50.0 °F 94% 29.37 in 9.0 mi SSE 13.8 mph 25.3 mph 0.00 in   Mostly Cloudy
6:55 AM 51.8 °F - 51.8 °F 100% 29.37 in 10.0 mi SE 13.8 mph 19.6 mph 0.00 in   Overcast
7:15 AM 51.8 °F - 51.8 °F 100% 29.36 in 10.0 mi SE 18.4 mph 27.6 mph 0.00 in   Overcast
7:35 AM 53.6 °F - 50.0 °F 88% 29.34 in 8.0 mi SE 13.8 mph 34.5 mph 0.00 in   Overcast
8:15 AM 51.8 °F - 51.8 °F 100% 29.34 in 10.0 mi SSE 16.1 mph 31.1 mph 0.00 in   Overcast
8:35 AM 51.8 °F - 51.8 °F 100% 29.35 in 10.0 mi SSE 16.1 mph 24.2 mph 0.00 in   Overcast
8:55 AM 51.8 °F - 51.8 °F 100% 29.33 in 10.0 mi SSE 17.3 mph 35.7 mph 0.00 in   Overcast
9:15 AM 51.8 °F - 51.8 °F 100% 29.34 in 10.0 mi SSE 16.1 mph 28.8 mph 0.00 in   Overcast
9:35 AM 51.8 °F - 51.8 °F 100% 29.35 in 10.0 mi SSE 16.1 mph 28.8 mph 0.00 in   Mostly Cloudy
9:55 AM 53.6 °F - 51.8 °F 94% 29.35 in 10.0 mi SSE 13.8 mph 29.9 mph 0.00 in   Overcast
10:15 AM 53.6 °F - 51.8 °F 94% 29.37 in 10.0 mi SSE 17.3 mph 25.3 mph 0.00 in   Overcast
10:35 AM 53.6 °F - 51.8 °F 94% 29.38 in 10.0 mi South 19.6 mph 28.8 mph 0.00 in   Overcast
10:55 AM 53.6 °F - 51.8 °F 94% 29.40 in 10.0 mi South 17.3 mph 27.6 mph 0.00 in   Overcast
11:15 AM 51.8 °F - 50.0 °F 94% 29.42 in 10.0 mi South 18.4 mph 26.5 mph 0.00 in   Overcast
11:35 AM 50.0 °F - 50.0 °F 100% 29.43 in 2.5 mi South 18.4 mph 21.9 mph 0.00 in   Overcast
11:55 AM 48.2 °F - 48.2 °F 100% 29.45 in 1.2 mi WSW 10.4 mph 31.1 mph 0.08 in   Overcast
12:15 PM 46.4 °F 42.9 °F 46.4 °F 100% 29.48 in 1.5 mi SSW 6.9 mph - 0.08 in   Overcast
12:35 PM 46.4 °F 39.8 °F 46.4 °F 100% 29.50 in 2.5 mi SSW 16.1 mph 23.0 mph 0.21 in   Overcast
12:55 PM 46.4 °F 42.9 °F 46.4 °F 100% 29.51 in 3.0 mi SSW 6.9 mph - 0.25 in   Mostly Cloudy
1:15 PM 46.4 °F 39.8 °F 46.4 °F 100% 29.52 in 3.0 mi SSW 16.1 mph 25.3 mph 0.02 in   Overcast
1:35 PM 48.2 °F - 48.2 °F 100% 29.53 in 10.0 mi SSW 17.3 mph 27.6 mph 0.03 in   Overcast
1:55 PM 48.2 °F - 46.4 °F 93% 29.54 in 10.0 mi South 12.7 mph 21.9 mph 0.03 in   Mostly Cloudy
2:15 PM 48.2 °F - 48.2 °F 100% 29.56 in 10.0 mi WSW 11.5 mph 24.2 mph 0.00 in   Overcast
2:35 PM 46.4 °F 43.5 °F 46.4 °F 100% 29.57 in 9.0 mi SW 5.8 mph - 0.01 in   Overcast
2:55 PM 48.2 °F - 46.4 °F 93% 29.60 in 10.0 mi WSW 9.2 mph - 0.01 in   Mostly Cloudy
3:15 PM 48.2 °F - 42.8 °F 82% 29.61 in 10.0 mi SW 20.7 mph 32.2 mph 0.01 in   Clear
3:35 PM 46.4 °F 39.0 °F 42.8 °F 87% 29.64 in 10.0 mi SW 19.6 mph 34.5 mph 0.01 in   Scattered Clouds
4:15 PM 46.4 °F 40.7 °F 42.8 °F 87% 29.67 in 10.0 mi WSW 12.7 mph 27.6 mph 0.00 in   Mostly Cloudy
4:35 PM 46.4 °F 39.2 °F 42.8 °F 87% 29.70 in 10.0 mi WSW 18.4 mph 29.9 mph 0.00 in   Mostly Cloudy
4:55 PM 44.6 °F 38.4 °F 42.8 °F 93% 29.72 in 10.0 mi SW 12.7 mph 26.5 mph 0.00 in   Mostly Cloudy
5:15 PM 44.6 °F 38.1 °F 41.0 °F 87% 29.73 in 10.0 mi SW 13.8 mph 24.2 mph 0.00 in   Overcast
5:35 PM 44.6 °F 40.2 °F 39.2 °F 81% 29.74 in 10.0 mi SW 8.1 mph 20.7 mph 0.00 in   Overcast
5:55 PM 44.6 °F 38.1 °F 39.2 °F 81% 29.75 in 10.0 mi WSW 13.8 mph 21.9 mph 0.00 in   Mostly Cloudy
6:15 PM 44.6 °F 39.7 °F 37.4 °F 76% 29.76 in 10.0 mi West 9.2 mph 20.7 mph 0.00 in   Mostly Cloudy
6:35 PM 44.6 °F 39.2 °F 37.4 °F 76% 29.77 in 10.0 mi West 10.4 mph 20.7 mph 0.00 in   Partly Cloudy
6:55 PM 44.6 °F 38.8 °F 37.4 °F 76% 29.78 in 10.0 mi WSW 11.5 mph 18.4 mph 0.00 in   Clear
7:15 PM 44.6 °F 37.4 °F 35.6 °F 71% 29.79 in 10.0 mi WSW 16.1 mph 29.9 mph 0.00 in   Clear
7:35 PM 44.6 °F 37.8 °F 33.8 °F 66% 29.80 in 10.0 mi WSW 15.0 mph 31.1 mph 0.00 in   Clear
7:55 PM 42.8 °F 35.4 °F 33.8 °F 70% 29.81 in 10.0 mi West 15.0 mph 26.5 mph 0.00 in   Clear
8:55 PM 42.8 °F 35.4 °F 33.8 °F 70% 29.88 in - West 15.0 mph 21.9 mph 0.00 in   Unknown
9:15 PM 41.0 °F 33.9 °F 35.6 °F 81% 29.90 in 10.0 mi WSW 12.7 mph 25.3 mph 0.00 in   Mostly Cloudy
9:35 PM 42.8 °F 37.0 °F 33.8 °F 70% 29.90 in 10.0 mi SW 10.4 mph 23.0 mph 0.00 in   Partly Cloudy
9:55 PM 42.8 °F 36.2 °F 33.8 °F 70% 29.92 in 10.0 mi WSW 12.7 mph 23.0 mph 0.00 in   Scattered Clouds
10:15 PM 41.0 °F 32.8 °F 35.6 °F 81% 29.94 in 10.0 mi SW 16.1 mph 26.5 mph 0.00 in   Partly Cloudy
10:35 PM 42.8 °F 36.2 °F 35.6 °F 76% 29.96 in 10.0 mi WSW 12.7 mph 21.9 mph 0.00 in   Mostly Cloudy
11:15 PM 41.0 °F 33.9 °F 35.6 °F 81% 29.98 in 10.0 mi SW 12.7 mph 19.6 mph 0.00 in   Partly Cloudy
11:35 PM 41.0 °F 35.2 °F 35.6 °F 81% 29.99 in 10.0 mi SW 9.2 mph 18.4 mph 0.00 in   Clear
11:55 PM 41.0 °F 35.2 °F 35.6 °F 81% 29.99 in 10.0 mi SW 9.2 mph 19.6 mph 0.00 in   Partly Cloudy